Regional Weather Roundup
Issued by NWS

Home | Current Version | Previous Version | Graphics & Text | Print | Product List | Glossary On
Versions: 1 2 3 4 5 6 7 8 9 10 11 12 13 14 15 16 17 18 19 20 21 22 23 24 25 26 27 28 29 30 31 32 33 34 35 36 37 38 39 40 41 42 43 44 45 46 47 48 49 50
000
ASUS45 KABQ 091601
RWRNM
WEATHER ROUNDUP FOR NEW MEXICO
NATIONAL WEATHER SERVICE ALBUQUERQUE NM
1000 AM MDT WED JUL 09 2014

NOTE: "FAIR" MEANS FEW OR NO CLOUDS BELOW 12,000 FEET AGL WITH NO
       SIGNIFICANT WEATHER OR OBSTRUCTIONS TO VISION.

      THIS PRODUCT IS RELEASED AS TWO VERSIONS.  ONE VERSION NEAR
      THE TOP OF THE HOUR CONTAINING PRELIMINARY DATA FROM ALBUQUERQUE
      AND OTHER STATIONS.  A FINAL VERSION WITH ADDITIONAL DATA IS
      ISSUED ABOUT 10 MINUTES AFTER THE HOUR.

NMZ501-503-504-510>518-091700-
NORTHWEST PLATEAU/NORTHCENTRAL MOUNTAINS

CITY           SKY/WX    TMP DP  RH WIND       PRES   REMARKS
FARMINGTON     SUNNY     74  52  46 SE9       30.25S
LOS ALAMOS     SUNNY     65  56  73 NE5       30.37S
SANTA FE       SUNNY     70  55  59 N14       30.30S
TAOS           MOSUNNY   63  52  67 SW5       30.38S
ANGEL FIRE     FAIR      60  50  69 CALM      30.45S

$$
NMZ402-403-502-505>509-091700-
WESTCENTRAL MOUNTAINS/SOUTHWEST MOUNTAINS

CITY           SKY/WX    TMP DP  RH WIND       PRES   REMARKS
GALLUP         MOSUNNY   72  50  45 VRB3      30.31F
GRANTS         PTSUNNY   68  56  66 NW3       30.34S

$$
NMZ407-409-411-412-091700-
SOUTHERN DESERTS

CITY           SKY/WX    TMP DP  RH WIND       PRES   REMARKS
LORDSBURG      FAIR      77  59  53 NW5       30.15S
DEMING         SUNNY     82  55  39 NE18G25   30.14S
LAS CRUCES     MOSUNNY   81  55  40 E6        30.16F
HOLLOMAN AFB   SUNNY     83  55  38 N5        30.13S
T OR C         SUNNY     79  54  41 N13       30.19S

$$
NMZ519>523-091700-
CENTRAL VALLEYS/CENTRAL HIGHLANDS

CITY           SKY/WX    TMP DP  RH WIND       PRES   REMARKS
ALBUQUERQUE    PTSUNNY   76  54  46 VRB3      30.25S
DOUBLE EAGLE   PTSUNNY   73  54  49 N9        30.29S
CLINES CORNERS SUNNY     74  49  41 S5        30.33S
BELEN          FAIR      74  57  56 W9        30.23F
SOCORRO        FAIR      78  54  43 N7        30.22R

$$
NMZ524>526-539-540-091700-
SOUTHCENTRAL MOUNTAINS

CITY           SKY/WX    TMP DP  RH WIND       PRES   REMARKS
RUIDOSO        NOT AVBL

$$
NMZ527>531-091700-
NORTHEAST HIGHLANDS/NORTHEAST PLAINS

CITY           SKY/WX    TMP DP  RH WIND       PRES   REMARKS
LAS VEGAS      MOSUNNY   71  51  49 S7        30.32F
RATON            N/A    N/A N/A N/A MISG      30.25F
CLAYTON        SUNNY     76  58  53 S12       30.19F

$$
NMZ532>537-091700-
EASTCENTRAL PLAINS

CITY           SKY/WX    TMP DP  RH WIND       PRES   REMARKS
TUCUMCARI      SUNNY     82  59  45 SW8       30.14F
CANNON AFB     SUNNY     79  60  53 SW7       30.19S
CLOVIS AIRPORT NOT AVBL

$$
NMZ028-029-538-091700-
SOUTHEAST PLAINS

CITY           SKY/WX    TMP DP  RH WIND       PRES   REMARKS
ROSWELL        SUNNY     84  59  42 S7        30.12S
ARTESIA        SUNNY     82  59  44 SE6       30.12S
CARLSBAD       SUNNY     85  58  39 SE7       30.09S
HOBBS          SUNNY     82  59  44 SE10      30.15S


$$



USA.gov is the U.S. government's official web portal to all federal, state and local government web resources and services.